Theta_e
349 357 365 365 364 364 363 362 362 362 361 361 357 354 354 354 354 353 352 353 352 350 345 343 343 344 344 344 344 347 349 350 349 351 353 355 360 362 360 360 355 351 356
351 357 363 363 363 363 363 361 360 359 359 358 355 353 354 354 353 352 351 352 350 349 345 345 345 345 344 344 344 345 346 349 352 351 356 357 358 358 357 357 356 355 356
351 352 356 362 361 362 361 360 358 358 358 355 354 353 353 353 352 351 351 350 349 346 345 345 344 344 343 343 343 343 345 348 351 355 358 352 352 356 356 356 356 354 353
351 352 355 361 362 359 358 359 359 357 354 353 352 351 351 353 352 350 350 350 346 346 345 344 344 343 342 342 341 341 342 345 350 356 342 345 345 351 353 351 349 351 346
350 351 354 360 360 359 357 358 358 356 353 351 349 349 350 352 351 349 349 349 345 344 344 343 342 341 341 340 339 339 340 342 347 338 332 332 333 342 345 345 344 343 342
348 351 357 359 358 359 356 356 355 353 351 351 348 348 350 350 350 348 348 348 344 343 342 341 340 339 338 338 338 338 339 342 340 323 328 333 330 340 338 337 338 338 338
348 350 353 359 357 357 354 355 352 351 351 350 348 347 347 351 350 348 346 342 342 342 340 339 337 337 337 337 337 338 340 340 325 322 324 325 329 338 334 336 333 332 332
346 347 349 357 358 356 354 353 352 351 350 350 349 349 347 349 349 348 346 341 340 340 340 337 334 333 334 334 336 337 339 341 328 323 323 323 334 333 332 334 333 332 332
344 346 346 349 352 353 352 353 352 351 350 349 349 349 349 348 347 347 347 345 340 339 338 336 332 331 332 334 336 337 339 342 328 321 322 322 331 331 331 332 334 335 335
337 340 344 346 345 344 345 349 349 348 348 348 348 348 348 347 346 346 345 345 341 340 338 337 334 333 335 337 338 339 341 340 316 318 321 323 331 331 330 330 331 333 334
335 335 339 340 339 343 344 346 346 346 344 345 343 346 343 334 335 336 341 344 345 341 338 337 337 337 339 339 344 340 343 325 317 320 320 330 330 331 331 330 331 334 335
331 334 336 339 341 342 345 338 335 335 335 333 332 331 330 334 337 338 340 342 341 339 338 338 338 336 329 322 323 328 322 319 319 320 321 329 330 331 332 329 329 332 332
331 332 334 335 336 337 337 336 335 335 331 333 332 329 332 334 334 335 335 336 336 336 331 333 326 323 321 320 320 319 320 320 319 320 326 330 331 333 331 332 329 329 330
330 331 332 334 333 334 334 332 327 329 329 328 329 329 328 328 331 332 331 331 328 330 329 327 324 322 320 320 318 318 319 320 321 320 324 330 331 330 332 332 328 328 328
326 325 326 327 328 329 329 328 330 332 329 329 327 327 326 326 324 326 327 327 327 324 325 323 322 321 320 321 321 322 321 320 321 321 321 330 331 330 330 329 327 328 327
324 326 325 326 326 325 324 323 325 326 326 325 325 324 323 322 321 321 322 323 323 323 322 322 321 321 320 319 321 322 318 317 315 317 317 320 330 329 329 329 328 327 325
323 320 319 321 323 324 323 323 321 321 324 322 322 320 321 319 319 318 318 318 320 323 323 321 321 319 317 319 318 316 315 314 314 315 319 315 325 330 329 328 326 324 323
320 317 318 320 318 320 317 316 322 321 321 319 319 318 318 318 317 316 315 316 318 319 323 320 317 315 315 314 313 313 312 313 313 314 317 316 319 323 327 328 325 323 322
318 318 319 318 316 318 315 317 316 315 316 321 323 322 320 321 320 316 317 317 318 317 316 316 316 317 312 312 312 311 310 310 312 316 318 316 314 320 320 327 325 323 323
320 319 318 318 316 314 313 314 313 313 313 320 320 318 318 315 316 313 311 311 316 316 316 316 315 317 317 312 313 313 310 310 311 314 315 314 313 319 320 320 318 320 323
318 319 318 316 314 313 311 310 310 308 311 316 314 316 315 316 316 312 311 310 311 311 312 313 314 315 312 313 309 308 310 312 315 314 311 311 311 314 315 315 316 318 319
320 320 317 319 314 314 313 313 312 311 310 313 314 315 316 316 313 311 310 311 311 310 309 311 314 310 311 313 308 305 302 306 311 313 313 313 310 313 314 316 315 316 315
317 318 319 315 313 313 312 311 310 310 308 308 311 310 312 315 314 311 311 310 311 311 309 309 310 309 308 311 312 307 301 298 305 307 307 311 309 310 311 313 315 315 315
314 315 315 313 312 313 315 309 307 305 304 307 309 312 312 314 315 313 313 314 311 311 310 310 314 310 309 310 313 316 310 307 300 299 305 307 307 308 308 306 313 318 314
316 313 314 311 310 310 310 309 307 306 310 311 311 311 311 312 313 314 313 315 313 310 310 311 310 311 309 311 310 312 311 308 307 303 299 302 306 307 306 312 312 313 315
311 311 311 308 307 308 309 310 310 305 306 306 308 308 308 308 309 310 312 310 310 310 310 311 311 311 311 311 310 310 306 303 303 302 299 300 300 304 309 310 309 308 309
Wind_Speed
8 6 15 16 16 17 16 14 12 13 16 17 18 18 17 16 16 16 15 15 16 16 18 18 18 18 17 17 17 16 14 14 13 11 11 12 12 12 15 16 16 13 13
7 6 16 16 16 16 15 14 14 14 15 15 18 16 15 15 15 15 15 15 15 16 18 18 18 17 18 18 18 17 16 15 12 6 12 13 13 14 14 15 15 13 15
11 7 14 15 15 15 14 14 13 13 15 15 15 14 15 15 15 15 14 15 15 17 17 16 16 17 17 18 18 19 18 18 19 9 11 8 11 14 14 15 15 14 14
13 8 10 14 15 15 14 13 13 14 15 14 14 14 14 13 14 14 14 14 15 16 15 15 15 15 16 16 16 17 19 19 17 14 7 10 11 15 14 15 16 13 14
12 10 12 14 14 15 15 14 14 14 14 14 14 14 14 13 13 12 12 13 14 14 14 13 13 13 13 14 14 15 16 16 17 13 10 7 6 11 13 12 12 11 12
11 8 12 15 14 14 15 14 15 14 13 13 13 13 13 13 13 11 11 12 12 12 12 11 10 10 10 11 13 15 15 14 12 5 8 10 7 11 11 9 9 8 9
12 9 9 13 13 13 14 14 15 14 13 12 12 12 12 11 11 11 11 11 10 10 9 8 7 6 8 9 12 15 14 14 10 5 8 6 6 10 9 7 4 4 5
13 9 10 14 14 13 13 13 13 12 12 12 11 11 11 10 9 9 8 8 8 8 7 5 3 3 5 7 10 12 14 15 10 7 5 5 9 10 8 7 4 2 1
10 9 7 8 11 13 12 11 11 11 11 10 10 9 9 9 7 6 7 7 7 6 6 4 2 2 4 7 11 11 12 14 6 4 7 3 10 10 8 7 5 5 5
13 11 6 8 6 6 5 11 11 10 9 9 9 9 9 9 9 7 6 7 10 10 7 5 5 4 6 7 10 11 13 14 7 6 3 4 10 10 8 6 5 6 6
14 14 12 8 7 6 6 6 7 8 7 5 2 3 4 4 4 3 7 11 13 8 4 4 7 9 11 11 7 9 11 3 6 4 2 9 9 9 8 5 3 6 9
16 14 13 9 8 7 5 6 5 4 4 3 5 5 5 5 5 7 6 12 7 2 4 8 9 10 8 3 4 10 4 5 4 4 2 8 8 9 8 4 2 3 8
11 13 14 11 10 7 6 4 3 3 5 6 9 5 4 4 3 3 4 6 1 6 6 6 7 3 5 5 5 4 5 4 3 2 5 8 6 7 6 5 2 5 8
14 13 14 13 12 12 6 5 4 4 4 3 4 7 6 4 5 3 2 4 3 1 5 3 2 4 5 5 3 5 5 4 2 3 4 8 6 6 8 8 5 5 6
12 10 9 9 9 7 8 5 5 5 4 5 6 6 5 4 2 2 3 3 3 1 2 1 3 3 3 5 5 4 4 4 5 1 3 7 7 6 7 7 5 5 4
8 6 6 7 6 6 6 6 4 4 4 4 3 3 4 3 3 3 3 1 1 1 1 2 3 4 4 4 5 4 5 6 5 5 1 3 6 6 6 5 5 4 3
7 9 8 8 7 6 4 3 1 1 2 0 2 3 4 3 4 4 3 1 1 2 4 4 4 2 2 4 5 5 5 5 5 5 4 2 4 8 7 6 4 3 1
6 7 8 7 9 8 7 5 4 3 2 2 3 2 3 3 3 3 3 4 4 3 2 2 3 3 3 4 4 4 4 5 6 5 4 3 4 4 7 7 4 1 3
6 7 6 7 7 8 8 6 5 7 4 4 2 2 4 4 3 3 4 5 5 3 3 2 1 2 3 4 4 5 5 4 6 4 3 4 4 5 4 7 6 4 3
6 6 5 4 6 6 5 6 5 5 7 4 3 3 4 2 4 2 2 4 3 3 4 4 4 3 4 4 4 5 4 5 4 4 4 5 6 6 5 4 3 4 5
4 7 3 4 3 4 4 3 3 4 4 4 3 4 5 5 4 4 4 5 4 3 4 5 3 4 3 3 2 4 4 6 4 4 4 4 6 5 5 4 3 3 2
7 5 3 4 4 5 4 3 3 2 2 1 2 4 6 6 5 4 4 5 5 3 5 4 4 3 3 3 3 0 3 4 4 1 3 3 6 3 4 4 5 5 2
5 1 4 7 7 5 6 4 4 5 5 4 6 3 5 8 6 6 5 5 4 4 3 2 3 3 3 2 4 3 2 1 2 3 4 2 3 1 3 4 5 6 6
2 9 7 7 6 5 6 5 6 3 3 3 3 4 5 6 7 7 6 5 5 3 5 2 3 2 2 1 1 2 3 2 2 2 3 2 1 1 1 2 3 4 6
0 5 4 5 4 6 7 6 5 4 3 3 3 6 5 5 5 5 6 7 5 3 4 4 4 4 1 1 2 2 4 3 1 2 2 3 4 2 2 3 5 4 6
9 6 5 8 8 8 7 6 7 7 6 5 5 4 5 5 4 5 6 5 5 4 4 3 4 5 4 3 1 2 3 2 1 3 2 1 2 4 4 5 6 4 4
Wind_Direction
76 92 95 95 96 100 103 101 90 80 82 85 86 84 84 84 82 81 80 84 85 84 80 75 68 59 51 42 37 33 30 27 28 39 87 77 73 79 68 88 89 83 77
116 103 92 94 97 103 105 102 98 90 83 88 90 92 93 93 92 87 84 82 82 80 78 72 64 55 46 36 27 25 21 19 21 55 100 80 77 70 73 79 84 84 80
119 100 91 91 97 101 104 100 96 94 97 98 99 100 102 101 99 94 93 91 88 83 76 70 63 54 45 34 22 12 14 10 9 107 107 81 66 64 69 74 76 83 81
112 104 96 96 99 103 105 99 98 102 103 101 100 105 104 102 100 97 97 94 92 87 80 73 62 53 43 32 19 8 11 8 11 118 82 82 79 68 69 72 67 93 73
106 106 105 101 99 102 104 104 103 102 104 107 111 114 111 106 103 101 102 98 94 90 83 75 64 52 40 27 13 5 12 8 21 89 84 88 82 71 69 66 77 74 77
92 87 93 99 100 98 101 109 109 107 107 109 115 118 117 116 115 109 103 103 102 99 89 80 68 53 37 21 6 2 9 10 23 82 84 81 79 74 68 60 60 73 81
112 101 93 96 96 101 103 106 110 111 111 113 116 119 119 115 116 115 112 111 108 103 97 90 76 55 30 14 358 357 3 5 43 58 90 82 77 74 62 50 57 67 74
114 116 104 100 101 102 104 110 113 117 121 121 120 124 126 122 122 125 124 121 123 126 126 117 94 49 17 358 338 347 351 350 54 107 86 85 77 65 55 47 13 44 35
97 108 110 105 104 103 107 110 115 118 121 121 125 128 132 133 139 145 147 150 152 159 163 165 217 294 347 336 320 328 341 340 41 135 97 89 73 63 54 37 12 11 352
54 55 89 106 109 106 104 112 106 106 113 128 138 142 153 159 172 176 175 185 191 195 192 196 245 312 327 314 304 315 333 344 88 102 102 82 75 64 54 43 18 9 354
53 47 46 65 57 102 97 100 104 116 120 84 131 123 60 19 295 258 218 220 211 197 205 261 326 332 332 326 295 302 328 315 87 101 107 92 81 72 56 30 21 36 20
51 50 47 59 56 56 67 58 84 81 75 70 62 84 76 41 47 55 21 343 275 270 359 330 316 353 19 9 8 8 356 7 73 130 127 100 85 84 76 46 19 40 53
55 44 43 42 47 58 55 43 42 46 38 39 17 36 89 70 32 46 32 74 345 46 22 13 22 21 17 13 3 343 345 332 40 142 140 113 103 83 74 97 77 67 57
53 47 42 36 34 32 37 34 57 60 57 64 50 34 36 33 40 4 52 80 46 196 133 122 282 7 4 340 359 329 335 318 348 105 174 134 128 94 98 122 117 89 66
58 57 51 43 42 36 40 23 42 35 35 54 50 25 39 52 69 71 65 71 92 19 19 83 336 304 310 302 297 302 310 329 316 104 156 162 144 129 113 121 125 99 76
50 57 72 62 62 48 38 33 35 39 45 48 72 73 63 39 25 38 51 93 130 182 240 272 281 288 296 299 305 325 325 328 318 347 322 174 172 157 138 127 120 99 54
49 49 36 38 24 40 48 355 41 37 96 132 100 54 49 39 34 6 345 328 274 258 223 214 225 254 318 297 296 302 299 294 301 331 294 82 170 172 166 156 138 125 95
66 68 54 41 20 10 2 7 327 320 250 217 170 126 59 360 27 352 318 299 286 280 295 339 323 326 301 302 292 277 281 293 304 304 293 135 148 178 170 141 135 65 52
94 75 78 54 32 18 2 357 2 2 358 237 172 146 189 214 259 254 282 291 273 285 281 243 262 252 296 291 274 271 272 287 275 315 282 143 89 148 140 154 138 137 140
105 100 81 72 54 35 16 356 3 348 358 3 32 33 51 40 28 6 316 316 351 280 281 237 233 234 217 246 284 292 285 263 265 272 175 96 86 126 136 161 174 169 167
102 88 100 87 59 46 26 360 2 360 358 17 40 2 9 347 342 328 327 326 318 329 314 312 232 225 275 236 311 302 284 261 226 198 134 124 108 125 139 149 143 172 168
87 92 92 63 48 29 11 352 7 350 321 267 306 322 5 341 314 308 319 317 327 340 347 1 359 317 264 202 203 136 319 341 25 33 86 127 131 137 145 150 141 124 90
78 112 65 45 47 24 10 7 356 349 349 359 350 348 333 339 323 323 342 339 342 344 328 325 313 321 284 295 178 173 24 277 343 357 31 32 72 58 225 201 178 134 119
3 63 74 68 53 27 17 14 24 15 346 310 311 336 330 343 2 8 345 343 339 333 326 290 273 264 242 254 315 98 65 166 145 349 343 350 320 44 270 270 167 105 109
157 94 78 80 52 23 40 53 39 11 329 325 339 348 335 332 22 352 350 340 340 332 311 343 343 331 300 138 174 86 61 277 244 131 252 311 344 329 19 79 102 95 77
45 56 58 39 32 28 26 26 29 12 345 350 346 344 334 335 352 349 339 335 335 342 352 4 12 19 17 50 142 117 144 161 116 100 96 286 231 301 59 74 82 71 63